Simultaneous Nadir Overpasses (SNOs) Predictions

Prediction of SNOs between AQUA and METOP-B Satellite Orbit:

Table of predicted SNOs for the next 14.0 days since TLE Epoch: 5/6/2018
Index Date (AQUA) Time (AQUA) Lat,Lon (AQUA) SZA (AQUA ) Date (METOP-B) Time (METOP-B) Lat,Lon (METOP-B) SZA (METOP-B ) Distance(km) Time Diff (sec)
1 05/08/2018 06:02:45 73.45, 84.52 56.31 05/08/2018 06:01:37 73.41, 82.55 56.34 62.55 68
2 05/08/2018 06:52:19 -73.92,-108.85 123.21 05/08/2018 06:52:09 -73.92,-108.94 123.20 2.73 10
3 05/08/2018 07:41:49 74.02, 58.56 56.90 05/08/2018 07:42:47 73.98, 58.56 56.86 3.72 58
4 05/11/2018 01:37:04 73.70, 150.42 55.83 05/11/2018 01:35:53 73.65, 149.51 55.82 29.09 71
5 05/11/2018 02:26:34 -73.96, -42.50 123.91 05/11/2018 02:26:29 -73.96, -42.43 123.90 2.34 5
6 05/11/2018 03:16:02 74.01, 125.02 56.14 05/11/2018 03:17:06 74.02, 125.06 56.15 2.21 64
7 05/13/2018 21:11:21 73.91,-143.60 55.35 05/13/2018 21:10:08 73.89,-143.52 55.33 3.21 73
8 05/13/2018 22:00:47 -73.95, 23.95 124.62 05/13/2018 22:00:49 -73.95, 23.96 124.62 0.52 2
9 05/13/2018 22:50:16 74.01,-168.54 55.44 05/13/2018 22:51:27 74.01,-168.56 55.44 0.60 71
10 05/16/2018 16:45:34 73.86, -77.06 54.64 05/16/2018 16:44:29 73.87, -77.15 54.66 2.91 65
11 05/16/2018 17:35:01 -73.96, 90.37 125.27 05/16/2018 17:35:10 -73.94, 90.35 125.29 1.91 9
12 05/16/2018 18:24:33 74.17,-102.48 54.95 05/16/2018 18:25:44 74.20,-101.69 54.95 23.99 71
13 05/19/2018 12:19:48 73.88, -10.66 54.04 05/19/2018 12:18:49 73.91, -10.65 54.07 3.12 59
14 05/19/2018 13:09:15 -73.97, 156.78 125.88 05/19/2018 13:09:30 -73.98, 156.84 125.87 2.14 15




NCC Satellite Simultaneous Nadir Overpasses (SNOs) Prediction Service
